Woodland Park Mayors Cup 10K                          
                                  Overall Male                                  
                                 August 12, 2017                                

If you have questions about the results, please send an e-mail to
raceresults@pprrun.org

If you have any input or questions concerning the conduct of the race
contact Cindy Keating at the Woodland Park Parks & Recreation at 687-5225.

Course: Both courses are slightly hilly. The 5K is entirely on paved roads.
At about the 1.25 mile mark the 10K splits away from the common
course and uses the Centennial Trail (macadam) that runs parralel to
Highway 67. This portion is an out and back with several short
hills. The elevation of both courses is in excess of 8,500 feet.

Weather: Sunny and warm, temps in the 60s and rising.

OPlc GPlc AGPlc AGrp   Bib Name                   Age Sex City                 St Gun     Chip    Pace    
   1    1     1 M20-29 193 Stephen VanGampleare    27  M  Colorado Springs     CO 0:36:14 0:36:14 0:05:51 
   2    2     1 M30-39 407 Nicholas Parton         31  M  Colorado Springs     CO 0:37:58 0:37:57 0:06:07 
   3    3     1 M40-49  90 Gerald Romero           45  M  Colorado Springs     CO 0:38:14 0:38:13 0:06:10 
   4    4     2 M20-29 443 Jesse Wesolowski        26  M  Manitou Springs      CO 0:38:54 0:38:50 0:06:16 
   5    5     1 M15-19 471 Richie Roberds          16  M  Colorado Springs     CO 0:40:08 0:40:07 0:06:28 
   6    6     2 M15-19 195 Troy Cournoyer          18  M  Colorado Springs     CO 0:40:49 0:40:48 0:06:35 
   7    7     2 M40-49  56 Duane Roberson          45  M  Colorado Springs     CO 0:41:01 0:41:00 0:06:37 
   8    8     2 M30-39  24 Nate Reisch             34  M  Windsor              CO 0:41:15 0:41:14 0:06:39 
   9    9     3 M40-49 197 Grant Drummond          40  M  Woodland Park        CO 0:41:38 0:41:37 0:06:43 
  10   10     4 M40-49 479 Robbie Keyser           48  M  Colorado Springs     CO 0:43:53 0:43:46 0:07:04 
  11   11     1 M50-59 425 Michael McGann          50  M  Colorado Springs     CO 0:44:18 0:44:16 0:07:08 
  12   12     5 M40-49 437 Todd Weaver             47  M  Colorado Springs     CO 0:44:36 0:44:31 0:07:11 
  13   13     3 M30-39 100 Mark Lendzion           35  M  Colorado Springs     CO 0:44:48 0:44:42 0:07:13 
  14   14     4 M30-39 192 Steve Crumpler          35  M  Colorado Springs     CO 0:46:03 0:45:59 0:07:25 
  15   15     6 M40-49 168 Jay Watts               45  M  Falcon               CO 0:46:28 0:46:23 0:07:29 
  16   16     2 M50-59  80 Alex Escarcega          53  M  Peyton               CO 0:46:32 0:46:32 0:07:30 
  17   17     3 M50-59 453 Paul Sullivan           50  M  Colorado Springs     CO 0:46:54 0:46:50 0:07:33 
  18   18     3 M20-29 111 Christopher Brown       29  M  Colorado Springs     CO 0:47:14 0:47:09 0:07:36 
  19   19     7 M40-49  83 Dave Marques            42  M  Colorado Springs     CO 0:47:21 0:47:18 0:07:38 
  21   20     4 M50-59 480 Johnny King-Marino      56  M  Doylestown           PA 0:48:20 0:48:20 0:07:48 

OPlc GPlc AGPlc AGrp   Bib Name                   Age Sex City                 St Gun     Chip    Pace    
  22   21     8 M40-49 122 Michael Hartley         48  M  Divide               CO 0:48:38 0:48:35 0:07:50 
  25   22     1 M60-69 448 Scott Sells             61  M  Colorado Springs     CO 0:49:33 0:49:31 0:07:59 
  26   23     9 M40-49 184 Robert Little           48  M  Peyton               CO 0:50:32 0:50:15 0:08:06 
  27   24     4 M20-29  68 Donald Byers            20  M  Colorado Springs     CO 0:50:29 0:50:24 0:08:08 
  28   25    10 M40-49  62 Robert Comstock         42  M  Colorado Springs     CO 0:50:35 0:50:29 0:08:09 
  29   26     5 M30-39 163 Jeff Nyczak             35  M  Wellington           CO 0:50:35 0:50:33 0:08:09 
  31   27     5 M50-59  81 Bren Triplett           53  M  Colorado Springs     CO 0:50:55 0:50:47 0:08:11 
  32   28     6 M50-59 419 Larry Seidman           54  M  Colorado Springs     CO 0:52:48 0:52:48 0:08:31 
  34   29    11 M40-49 145 Michael Dewall          49  M  Woodland Park        CO 0:54:13 0:53:55 0:08:42 
  35   30     7 M50-59 401 David Mulligan          56  M  Colorado Springs     CO 0:54:19 0:54:16 0:08:45 
  37   31    12 M40-49 242 Tom Castle              46  M  Colorado Springs     CO 0:54:41 0:54:37 0:08:49 
  38   32     2 M60-69 179 Louie Serna             60  M  Colorado Springs     CO 0:54:47 0:54:42 0:08:49 
  39   33     8 M50-59  55 Josh Holer              55  M  Colorado Springs     CO 0:54:49 0:54:49 0:08:50 
  40   34     3 M60-69 140 Jon Cornick             61  M  Colorado Springs     CO 0:55:17 0:55:17 0:08:55 
  41   35     5 M20-29  51 Roylan Piloto           24  M  Colorado Springs     CO 0:55:41 0:55:37 0:08:58 
  43   36     9 M50-59  21 Kenneth Buckey          55  M  Colorado Springs     CO 0:55:59 0:55:49 0:09:00 
  45   37    13 M40-49 123 Eric Harding            45  M  Peyton               CO 0:56:48 0:56:46 0:09:09 
  46   38     6 M20-29 477 Andy Estrada            22  M  Colorado Springs     CO 0:56:53 0:56:47 0:09:10 
  48   39     6 M30-39 420 Ryan Schultz            32  M  Woodland Park        CO 0:57:27 0:57:16 0:09:14 
  49   40    10 M50-59 107 Will Snyder             52  M  Colorado Springs     CO 0:57:58 0:57:52 0:09:20 

OPlc GPlc AGPlc AGrp   Bib Name                   Age Sex City                 St Gun     Chip    Pace    
  53   41     1 M01-09 466 Hudson Chou              8  M  Woodland Park        CO 0:58:42 0:58:35 0:09:27 
                            New Age-Group Course Record!!! Age-Group: M1-9
                            (No previous record in this category.)

  54   42     4 M60-69 166 Thomas Heffernan        65  M  Woodland Park        CO 0:58:46 0:58:39 0:09:28 
  55   43     7 M30-39  39 Brandon Heser           37  M  Colorado Springs     CO 0:59:14 0:58:53 0:09:30 
  56   44     1 M70-98  22 Darrell Weaver          71  M  Colorado Springs     CO 0:59:32 0:59:22 0:09:35 
  61   45     5 M60-69  93 Michael Olson           60  M  Victor               CO 1:03:29 1:02:57 0:10:09 
  62   46     2 M70-98 150 Charles Schroeder       77  M  Woodland Park        CO 1:03:36 1:03:32 0:10:15 
  65   47    14 M40-49 114 Robert Gance            49  M  Lake George          CO 1:04:14 1:03:51 0:10:18 
  66   48    15 M40-49  23 Russ McGuire            42  M  Colorado Springs     CO 1:05:09 1:04:58 0:10:29 
  69   49     6 M60-69 454 John Klein              61  M  Colorado Springs     CO 1:06:22 1:06:06 0:10:40 
  72   50    16 M40-49 119 Julius Mendoza          40  M  Colorado Springs     CO 1:11:26 1:11:00 0:11:27 
  76   51     8 M30-39 445 Chris Beiswanger        38  M  Colorado Springs     CO 1:13:46 1:13:25 0:11:50 
  79   52     7 M60-69  59 Jim Thiessen            65  M  Colorado Springs     CO 1:14:02 1:13:55 0:11:55 
  80   53    17 M40-49 178 Mark Zandarski          41  M  Colorado Springs     CO 1:14:23 1:14:02 0:11:56